星链-4093 (STARLINK-4093 )

导读

STARLINK-4093是美国SpaceX公司星链(Starlink)互联网星座中的一员,于2022年7月17日发射入轨。作为星链低轨通信卫星,它采用平板设计,搭载Ku/Ka波段通信载荷与氪工质霍尔推进器,运行于近地轨道,为全球偏远区域提供高速低延迟宽带互联网服务,星链卫星设计寿命约5-7年,退役后会再入大气层焚毁。

基本信息
目录编号:
53157
目录名称:
STARLINK-4093
国际标识:
2022-083AB
轨道中心:
EARTH
卫星名称:
星链-4093
卫星全名:
星链-4093 (STARLINK-4093 )
卫星状态:
已陨落 最后检测时间 2025-08-07
发射日期:
2022-07-17 UTC
国别 :
美国 (US)
星等 :
--
轨道信息
数据来源 国际轨道数据
星历时间: 2025-08-07T19:06:23+0800
轨道信息已过期314天
半长轴: 6521.696km
偏心率: 0.0006874
轨道倾角: 53.203°
近地点辐角 286.142°
升交点赤经 13.212°
平近点角 73.887°
近地点: 139.077km
远地点: 148.045km
周期: 87.358分钟
每日圈数: 16.483977
详细信息
固有亮度:
5
最大亮度:
2.5
卫星平台:
Starlink v1.5
覆盖范围:
全球
运营商:
太空探索技术公司
运营商所在国:
美国
制造商(研发单位):
太空探索技术公司
制造商所在国:
美国
使用方式:
暂无
卫星简介
星链(Starlink)计划是由太空探索技术公司(SpaceX)提出的一个巨型低轨卫星互联网星座项目,计划在2019年至2024年间在太空搭建由约1.2万颗卫星组成的“星链”网络,其中1584颗将部署在地球上空550千米处的近地轨道,并从2020年开始工作。该卫星仍在工作。